LOT2 KMCO-KEWR

Flight info

Callsign LOT2
Flight time N/A
Altitude 39000
Route FATHE4 VIYAP Q87 ALWZZ OGRAE Q99 QUART PHLBO4
Aircraft A20N/M-SDE2E3FGHIRWXY/LB1

Departure

Time N/A
Airport Orlando International Airport (KMCO)

Arrival

Time 2026-05-05 16:30
Airport Newark Liberty International Airport (KEWR)
Time Latitude Longitude Altitude Speed Heading
2026-05-05 15:08 32.79388 -80.57850 39089 ft 419 kts 16°
2026-05-05 15:09 32.82307 -80.56114 39092 ft 419 kts 17°
2026-05-05 15:09 32.88152 -80.52632 39093 ft 417 kts 17°
2026-05-05 15:10 32.94004 -80.49149 39102 ft 416 kts 17°
2026-05-05 15:10 32.99840 -80.45664 39089 ft 417 kts 17°
2026-05-05 15:11 33.05694 -80.42168 39106 ft 416 kts 17°
2026-05-05 15:11 33.11512 -80.38683 39104 ft 417 kts 17°
2026-05-05 15:12 33.17306 -80.35213 39090 ft 417 kts 17°
2026-05-05 15:12 33.23073 -80.31754 39091 ft 417 kts 18°
2026-05-05 15:13 33.28881 -80.28265 39087 ft 417 kts 18°
2026-05-05 15:13 33.34714 -80.24754 39078 ft 416 kts 18°
2026-05-05 15:14 33.40531 -80.21246 39077 ft 416 kts 18°
2026-05-05 15:14 33.46359 -80.17728 39087 ft 417 kts 17°
2026-05-05 15:15 33.52214 -80.14185 39085 ft 417 kts 17°
2026-05-05 15:15 33.58047 -80.10654 39088 ft 417 kts 17°
2026-05-05 15:16 33.63885 -80.07112 39089 ft 417 kts 18°
2026-05-05 15:16 33.69696 -80.03587 39090 ft 417 kts 17°
2026-05-05 15:17 33.75534 -80.00041 39089 ft 417 kts 17°
2026-05-05 15:17 33.81340 -79.96505 39088 ft 416 kts 17°
2026-05-05 15:18 33.87161 -79.92955 39086 ft 417 kts 17°
2026-05-05 15:18 33.92967 -79.89407 39084 ft 416 kts 17°
2026-05-05 15:19 33.98806 -79.85835 39085 ft 416 kts 17°
2026-05-05 15:19 34.04625 -79.82268 39089 ft 416 kts 17°
2026-05-05 15:20 34.10413 -79.78715 39100 ft 417 kts 17°
2026-05-05 15:20 34.16175 -79.75172 39077 ft 416 kts 18°
2026-05-05 15:21 34.21972 -79.71606 39083 ft 415 kts 17°
2026-05-05 15:21 34.27754 -79.68041 39086 ft 416 kts 17°
2026-05-05 15:22 34.33570 -79.64447 39089 ft 417 kts 17°
2026-05-05 15:22 34.39380 -79.60857 39080 ft 417 kts 18°
2026-05-05 15:23 34.45195 -79.57256 39080 ft 417 kts 18°
2026-05-05 15:23 34.50979 -79.53665 39080 ft 417 kts 18°
2026-05-05 15:24 34.56795 -79.50013 39082 ft 419 kts 19°
2026-05-05 15:24 34.62530 -79.46140 39083 ft 419 kts 19°
2026-05-05 15:25 34.68423 -79.42821 39083 ft 411 kts 12°
2026-05-05 15:25 34.74473 -79.40387 39085 ft 404 kts
2026-05-05 15:26 34.80613 -79.38787 39089 ft 400 kts
2026-05-05 15:26 34.86798 -79.37459 39092 ft 400 kts
2026-05-05 15:27 34.92991 -79.36139 39083 ft 400 kts
2026-05-05 15:27 34.99172 -79.34817 39058 ft 401 kts
2026-05-05 15:28 35.05320 -79.33504 39069 ft 401 kts
2026-05-05 15:28 35.11486 -79.32181 39073 ft 401 kts
2026-05-05 15:29 35.17675 -79.30856 39082 ft 402 kts
2026-05-05 15:29 35.23877 -79.29526 39088 ft 403 kts
2026-05-05 15:30 35.30131 -79.28178 39084 ft 404 kts
2026-05-05 15:30 35.36348 -79.26839 39075 ft 405 kts
2026-05-05 15:31 35.42595 -79.25488 39077 ft 405 kts
2026-05-05 15:31 35.48851 -79.24137 39086 ft 406 kts
2026-05-05 15:32 35.55098 -79.22784 39072 ft 406 kts
2026-05-05 15:32 35.61386 -79.21416 39077 ft 407 kts
2026-05-05 15:33 35.67623 -79.19939 39069 ft 409 kts
2026-05-05 15:33 35.73790 -79.17471 39071 ft 417 kts 15°
2026-05-05 15:34 35.79704 -79.13875 39061 ft 427 kts 22°
2026-05-05 15:34 35.85290 -79.09271 39051 ft 432 kts 27°
2026-05-05 15:35 35.90827 -79.04433 39059 ft 432 kts 27°
2026-05-05 15:35 35.96366 -78.99586 39058 ft 432 kts 27°
2026-05-05 15:36 36.01895 -78.94752 39062 ft 434 kts 27°
2026-05-05 15:36 36.07439 -78.89894 39070 ft 434 kts 27°
2026-05-05 15:37 36.12949 -78.85056 39084 ft 436 kts 27°
2026-05-05 15:37 36.18545 -78.80138 39073 ft 437 kts 27°
2026-05-05 15:38 36.24136 -78.75215 39067 ft 437 kts 28°
2026-05-05 15:38 36.29743 -78.70265 39065 ft 438 kts 28°
2026-05-05 15:39 36.35355 -78.65303 39062 ft 439 kts 28°
2026-05-05 15:39 36.40961 -78.60335 39059 ft 440 kts 28°
2026-05-05 15:40 36.46663 -78.55488 39043 ft 438 kts 25°
2026-05-05 15:40 36.52484 -78.50935 39046 ft 438 kts 25°
2026-05-05 15:41 36.58333 -78.46364 39041 ft 440 kts 25°
2026-05-05 15:41 36.64189 -78.41767 39044 ft 440 kts 25°
2026-05-05 15:42 36.70000 -78.37196 39041 ft 440 kts 25°
2026-05-05 15:42 36.75823 -78.32606 39042 ft 441 kts 26°
2026-05-05 15:43 36.81685 -78.27979 39032 ft 441 kts 26°
2026-05-05 15:43 36.87533 -78.23351 39028 ft 442 kts 26°
2026-05-05 15:44 36.93409 -78.18691 39018 ft 443 kts 26°
2026-05-05 15:44 36.99296 -78.14017 39020 ft 442 kts 26°
2026-05-05 15:45 37.05163 -78.09355 39012 ft 443 kts 26°
2026-05-05 15:45 37.11004 -78.04705 39015 ft 444 kts 26°
2026-05-05 15:46 37.16719 -78.00140 39013 ft 445 kts 26°
2026-05-05 15:46 37.22591 -77.95442 39008 ft 446 kts 26°
2026-05-05 15:47 37.28507 -77.90702 39005 ft 446 kts 26°
2026-05-05 15:47 37.34429 -77.85942 39004 ft 447 kts 26°
2026-05-05 15:48 37.40329 -77.81195 39001 ft 447 kts 26°
2026-05-05 15:48 37.46197 -77.76469 39004 ft 448 kts 27°
2026-05-05 15:49 37.52133 -77.71674 39001 ft 449 kts 27°
2026-05-05 15:49 37.58038 -77.66914 39005 ft 449 kts 27°
2026-05-05 15:50 37.63967 -77.62123 39002 ft 449 kts 27°
2026-05-05 15:50 37.69915 -77.57307 39004 ft 449 kts 27°
2026-05-05 15:51 37.75849 -77.52493 39002 ft 450 kts 27°
2026-05-05 15:51 37.81815 -77.47649 38994 ft 451 kts 27°
2026-05-05 15:52 37.87792 -77.42780 38994 ft 452 kts 27°
2026-05-05 15:52 37.93747 -77.37921 38988 ft 452 kts 27°
2026-05-05 15:53 37.99723 -77.33033 38974 ft 452 kts 28°
2026-05-05 15:53 38.05679 -77.28170 38981 ft 453 kts 28°
2026-05-05 15:54 38.11648 -77.23276 38970 ft 453 kts 28°
2026-05-05 15:54 38.17451 -77.18510 38964 ft 453 kts 28°
2026-05-05 15:55 38.23434 -77.13586 38966 ft 455 kts 28°
2026-05-05 15:55 38.29357 -77.08634 38963 ft 456 kts 31°
2026-05-05 15:56 38.35090 -77.03205 38962 ft 457 kts 33°
2026-05-05 15:56 38.40783 -76.97709 38960 ft 457 kts 33°
2026-05-05 15:57 38.46479 -76.92204 38953 ft 458 kts 33°
2026-05-05 15:57 38.52157 -76.86717 38949 ft 458 kts 33°
2026-05-05 15:58 38.57858 -76.81196 38950 ft 459 kts 33°
2026-05-05 15:58 38.63598 -76.75626 38953 ft 459 kts 33°
2026-05-05 15:59 38.69286 -76.70091 38951 ft 459 kts 33°
2026-05-05 15:59 38.75007 -76.64516 38952 ft 460 kts 33°
2026-05-05 16:00 38.80755 -76.58909 38952 ft 460 kts 33°
2026-05-05 16:00 38.86437 -76.53352 38951 ft 460 kts 33°
2026-05-05 16:01 38.92173 -76.47724 38949 ft 460 kts 33°
2026-05-05 16:01 38.97866 -76.42130 38947 ft 460 kts 33°
2026-05-05 16:02 39.03517 -76.36423 38948 ft 461 kts 37°
2026-05-05 16:02 39.08937 -76.30170 38938 ft 463 kts 39°
2026-05-05 16:03 39.14039 -76.24195 38521 ft 462 kts 39°
2026-05-05 16:03 39.16788 -76.20970 37770 ft 457 kts 39°
2026-05-05 16:03 39.19451 -76.17852 36586 ft 459 kts 38°
2026-05-05 16:03 39.22137 -76.14706 35586 ft 462 kts 38°
2026-05-05 16:04 39.24852 -76.11522 34573 ft 465 kts 38°
2026-05-05 16:04 39.27530 -76.08383 33586 ft 464 kts 38°
2026-05-05 16:04 39.30223 -76.05231 32687 ft 462 kts 38°
2026-05-05 16:04 39.32894 -76.02097 31769 ft 461 kts 39°
2026-05-05 16:05 39.35562 -75.98959 30846 ft 460 kts 39°
2026-05-05 16:05 39.38253 -75.95792 29886 ft 460 kts 39°
2026-05-05 16:05 39.40946 -75.92612 28904 ft 460 kts 39°
2026-05-05 16:05 39.43612 -75.89461 27919 ft 461 kts 39°
2026-05-05 16:06 39.46323 -75.86254 26891 ft 462 kts 40°
2026-05-05 16:06 39.49009 -75.83073 26093 ft 466 kts 40°
2026-05-05 16:06 39.51731 -75.79848 25474 ft 469 kts 40°
2026-05-05 16:06 39.54431 -75.76641 24840 ft 465 kts 40°
2026-05-05 16:07 39.57112 -75.73452 24184 ft 460 kts 40°
2026-05-05 16:07 39.59776 -75.70283 23530 ft 456 kts 40°
2026-05-05 16:07 39.62450 -75.67097 22877 ft 451 kts 40°
2026-05-05 16:07 39.65024 -75.64029 22241 ft 447 kts 40°
2026-05-05 16:08 39.67616 -75.60936 21592 ft 442 kts 40°
2026-05-05 16:08 39.70141 -75.57910 20957 ft 438 kts 40°
2026-05-05 16:08 39.72625 -75.54920 20320 ft 434 kts 40°
2026-05-05 16:08 39.75130 -75.51901 19681 ft 429 kts 40°
2026-05-05 16:09 39.77585 -75.48939 19044 ft 425 kts 39°
2026-05-05 16:09 39.80014 -75.46007 18424 ft 421 kts 39°
2026-05-05 16:09 39.82390 -75.43134 17810 ft 417 kts 39°
2026-05-05 16:09 39.84761 -75.40269 17185 ft 412 kts 39°
2026-05-05 16:10 39.87110 -75.37427 16570 ft 409 kts 39°
2026-05-05 16:10 39.89414 -75.34634 15949 ft 406 kts 40°
2026-05-05 16:10 39.91703 -75.31859 15331 ft 403 kts 40°
2026-05-05 16:10 39.94003 -75.29066 14708 ft 400 kts 40°
2026-05-05 16:11 39.96258 -75.26324 14086 ft 398 kts 40°
2026-05-05 16:11 40.03055 -75.18054 12202 ft 393 kts 41°
2026-05-05 16:12 40.05267 -75.15351 11749 ft 384 kts 41°
2026-05-05 16:12 40.09452 -75.10228 11253 ft 354 kts 40°
2026-05-05 16:13 40.15107 -75.03307 10636 ft 325 kts 40°
2026-05-05 16:13 40.16959 -75.01041 10349 ft 322 kts 40°
2026-05-05 16:13 40.18766 -74.98827 10097 ft 318 kts 41°
2026-05-05 16:14 40.22324 -74.94455 9404 ft 313 kts 41°
2026-05-05 16:14 40.25780 -74.90137 8659 ft 309 kts 44°
2026-05-05 16:15 40.29055 -74.85563 7944 ft 307 kts 46°
2026-05-05 16:15 40.32385 -74.80866 7980 ft 317 kts 45°
2026-05-05 16:16 40.35770 -74.76104 7997 ft 318 kts 45°
2026-05-05 16:16 40.39166 -74.71320 7991 ft 317 kts 45°
2026-05-05 16:17 40.42797 -74.66888 7975 ft 312 kts 21°
2026-05-05 16:17 40.45090 -74.65981 7980 ft 306 kts
2026-05-05 16:18 40.49777 -74.64873 7979 ft 305 kts
2026-05-05 16:18 40.52112 -74.64298 7979 ft 305 kts
2026-05-05 16:18 40.56834 -74.63057 7980 ft 305 kts
2026-05-05 16:19 40.59198 -74.62423 7978 ft 306 kts
2026-05-05 16:19 40.61555 -74.61790 7978 ft 306 kts
2026-05-05 16:19 40.66264 -74.60525 7989 ft 306 kts
2026-05-05 16:20 40.70984 -74.59258 7993 ft 306 kts
2026-05-05 16:20 40.75696 -74.57991 7991 ft 306 kts
2026-05-05 16:21 40.80450 -74.56711 8001 ft 306 kts
2026-05-05 16:22 40.86900 -74.52782 7989 ft 318 kts 56°
2026-05-05 16:22 40.87878 -74.46603 7824 ft 309 kts 105°
2026-05-05 16:23 40.87488 -74.40252 6946 ft 311 kts 78°
2026-05-05 16:23 40.88157 -74.37195 6551 ft 308 kts 73°
2026-05-05 16:23 40.89694 -74.31425 5813 ft 300 kts 72°
2026-05-05 16:24 40.90487 -74.28525 5448 ft 296 kts 72°
2026-05-05 16:24 40.91267 -74.25652 5086 ft 292 kts 72°
2026-05-05 16:24 40.92778 -74.20047 4369 ft 285 kts 72°
2026-05-05 16:25 40.93414 -74.17219 3975 ft 281 kts 88°
2026-05-05 16:25 40.91510 -74.12845 3320 ft 247 kts 158°
2026-05-05 16:25 40.89857 -74.11755 3298 ft 231 kts 159°
2026-05-05 16:26 40.86919 -74.09679 3226 ft 206 kts 158°
2026-05-05 16:26 40.84229 -74.07768 3037 ft 191 kts 172°
2026-05-05 16:27 40.82818 -74.07864 3009 ft 180 kts 202°
2026-05-05 16:27 40.81566 -74.08571 2966 ft 180 kts 209°
2026-05-05 16:27 40.80257 -74.09425 2521 ft 188 kts 210°
2026-05-05 16:27 40.78923 -74.10329 2133 ft 192 kts 209°
2026-05-05 16:28 40.77559 -74.11210 1702 ft 196 kts 208°
2026-05-05 16:28 40.76237 -74.12011 1495 ft 174 kts 206°
2026-05-05 16:28 40.75098 -74.12705 1258 ft 156 kts 208°
2026-05-05 16:28 40.74088 -74.13377 953 ft 145 kts 209°
2026-05-05 16:29 40.73154 -74.13992 702 ft 132 kts 208°
2026-05-05 16:29 40.72276 -74.14550 471 ft 125 kts 207°
2026-05-05 16:29 40.71435 -74.15086 310 ft 125 kts 207°
2026-05-05 16:29 40.70592 -74.15623 161 ft 125 kts 207°
2026-05-05 16:30 40.69739 -74.16164 32 ft 126 kts 207°
2026-05-05 16:30 40.69002 -74.16637 19 ft 82 kts 206°
2026-05-05 16:30 40.68631 -74.16874 19 ft 25 kts 213°
2026-05-05 16:30 40.68524 -74.17022 19 ft 17 kts 236°
2026-05-05 16:31 40.68460 -74.17149 19 ft 12 kts 237°
2026-05-05 16:31 40.68451 -74.17255 19 ft 11 kts 294°
2026-05-05 16:31 40.68492 -74.17366 19 ft 12 kts 295°
2026-05-05 16:31 40.68548 -74.17467 19 ft 13 kts 332°
2026-05-05 16:32 40.68579 -74.17558 19 ft 10 kts 231°
2026-05-05 16:32 40.68507 -74.17611 19 ft 11 kts 206°
2026-05-05 16:32 40.68425 -74.17664 19 ft 12 kts 206°
2026-05-05 16:32 40.68338 -74.17718 19 ft 13 kts 206°
2026-05-05 16:33 40.68245 -74.17778 19 ft 13 kts 205°
2026-05-05 16:33 40.68192 -74.17871 19 ft 13 kts 291°
2026-05-05 16:33 40.68235 -74.18000 19 ft 14 kts 281°
2026-05-05 16:33 40.68241 -74.18148 19 ft 15 kts 258°
2026-05-05 16:34 40.68241 -74.18300 19 ft 15 kts 276°
2026-05-05 16:34 40.68250 -74.18434 19 ft 5 kts 275°
2026-05-05 16:34 40.68277 -74.18468 19 ft 6 kts 359°
2026-05-05 16:34 40.68317 -74.18463 19 ft 2 kts
2026-05-05 16:35 40.68318 -74.18463 19 ft 0 kts